Simultaneous Nadir Overpasses (SNOs) Predictions

Prediction of SNOs between FY3D and LANDSAT-8 Satellite Orbit:

Table of predicted SNOs for the next 14.0 days since TLE Epoch: 3/16/2024
Index Date (FY3D) Time (FY3D) Lat,Lon (FY3D) SZA (FY3D ) Date (LANDSAT-8) Time (LANDSAT-8) Lat,Lon (LANDSAT-8) SZA (LANDSAT-8 ) Distance(km) Time Diff (sec)
1 03/18/2024 02:24:31 74.07, 146.92 74.79 03/18/2024 02:25:01 74.07, 146.87 74.78 1.58 30
2 03/18/2024 03:15:14 -74.00, -45.60 105.30 03/18/2024 03:14:30 -73.99, -45.68 105.32 2.81 44
3 03/20/2024 17:51:20 -74.08, 95.23 106.25 03/20/2024 17:52:02 -74.09, 95.15 106.25 2.39 42
4 03/20/2024 18:42:05 74.01, -97.27 73.67 03/20/2024 18:41:29 74.01, -97.38 73.67 3.67 36
5 03/23/2024 09:18:12 74.14, 43.41 72.77 03/23/2024 09:19:00 74.13, 43.50 72.76 2.96 48
6 03/23/2024 10:08:55 -74.08,-149.10 107.31 03/23/2024 10:08:29 -74.06,-149.03 107.33 3.06 26
7 03/26/2024 00:45:00 -74.13, -8.20 108.28 03/26/2024 00:46:01 -74.11, -8.30 108.30 3.57 61
8 03/26/2024 01:35:45 74.10, 159.19 71.68 03/26/2024 01:35:26 74.08, 159.26 71.66 3.30 19
9 03/28/2024 16:11:50 74.16, -59.93 70.72 03/28/2024 16:12:57 74.15, -59.95 70.72 0.70 67
10 03/28/2024 17:02:33 -74.09, 107.55 109.36 03/28/2024 17:02:26 -74.09, 107.53 109.37 0.64 7



Historial Predications of SNOs between FY3D and LANDSAT-8
